DECAYED
Showing default

SUPERVIEW-1 02, 41908 (Decayed)

Orbit data source: Space-Track

SUPERVIEW-1 02, 41908 was a payload satellite owned by Beijing HSJ (CN) in LEO that was launched on Wed, 28 Dec 2016 UTC via a CHANG ZHENG 2D launch vehicle from the Taiyaun Space Center, China (TSC). Payload-class satellites include a variety of spacecraft equipped with specific instruments for various scientific and technological missions. These include communications satellites like Starlink; space stations such as the ISS; scientific satellites like the Hubble; Earth observation satellites from companies like Planet Labs, Umbra, and HawkEye 360; GPS; miniature CubeSats for education and research; and military/defense satellites.

Not visible in the next 10 days
Identifier
41908, 2016-083B
Orbit
Decayed
Last TLE update
6 months ago
Origin
Manufacturer
DFH
Mission
Decayed Commercial Imaging
Bus & Motor
CAST3000B, Unknown motor
Mass
~600 kg wet, ~560 kg dry
Launch date (UTC)
2016-12-28 (9 years ago)
Launch vehicle
CHANG ZHENG 2D
Launch site
Taiyaun Space Center, China (TSC)
Object type
Payload
Rocket body
Debris
Shape & HBR
Box + 2 Pan, 4 m
Radar Cross Section
5.141 m², Large (>1 m²)

Expand to show TLE details & history

TLE from 6 months ago
0 SUPERVIEW-1 02
1 41908U 16083B   24357.06120046  .21979720  24834-5  34165-3 0  9995
2 41908  97.2096  67.8050 0008511 266.7471 181.3529 16.48131307443285
Epoch: 2024-12-22T01:28Z
TLE epoch observation values (Epoch: 2024-12-22T01:28:07.719Z)
Latitude
82.58675°
Longitude
-120.48882°
Altitude
163.372 km
Speed
7.812 km/s
True Right ascension
23h 30m 35s
True Declination
82° 32' 19"
Sunlit
Object was in full shadow at epoch
Visualization orbit readout
Visualization observer readout
Orbital elements
Apogee altitude
146.598 km
Perigee altitude
135.501 km
Semi-major axis
6,519.187 km
Eccentricity
0.00085
Inclination
97.2096°
RAAN
67.805°
Arg. of periapsis
266.7471°
True anomaly
Unknown
Mean anomaly
181.3529°
Eccentric anomaly
Unknown
Mean motion
4.12338 °/min
Orbital period
87.31 mins
BSTAR
0.00034165
Loading maneuver chart data...
Loading SW <> Apogee altitude chart data...
Loading historical data...
Loading historical data...
Loading historical data...
Loading historical data...
Loading historical data...
Loading historical data...
Loading historical data...
Other satellites on launch #83 in the year 2016 (2016-12-28 UTC)

SUPERVIEW-1 02 Visibility

Observer location: undefined°, undefined°

This satellite is decayed
Span
Click to sort rows by Start time (UTC) header in descending order
Start Az.
Max El. time (UTC)
Max El. Az.
Max El.
End time (UTC)
End Az.
|